RH
43 42 40 39 37 34 33 34 38 41 42 42 40 36 35 39 43 45 46 46 44 42 40 37 35 33 32 33 37 40 40 40 42 41 40 41 43 45 49 51 53 54
41 42 41 41 40 38 35 33 35 37 38 40 40 36 34 36 42 46 46 44 43 42 41 37 33 32 33 33 32 35 39 39 40 41 41 42 43 48 50 48 48 52
37 38 38 39 38 38 38 35 33 34 35 37 38 35 33 34 38 43 44 41 41 42 40 38 35 32 30 30 28 30 35 37 38 40 38 35 38 46 49 45 45 48
34 34 35 36 36 36 36 35 32 31 32 34 35 32 32 33 35 39 40 39 39 41 39 37 37 34 30 27 26 26 30 33 35 36 34 32 33 39 43 42 42 45
31 33 33 35 35 35 34 31 28 28 28 29 32 31 30 31 32 35 38 37 37 38 37 34 33 33 31 27 25 24 27 34 37 32 31 33 31 32 35 34 34 36
30 31 32 34 35 34 33 30 26 26 26 26 29 30 30 30 30 32 35 36 36 36 35 32 31 31 31 28 25 23 24 31 35 30 28 31 31 31 32 31 29 29
30 29 30 33 34 34 33 31 27 24 23 24 25 27 28 29 29 30 33 35 35 34 31 28 27 25 23 21 19 19 19 23 26 25 25 28 30 31 31 29 28 28
31 30 29 30 32 33 32 31 27 23 20 20 22 24 26 27 28 29 31 33 34 30 25 22 21 19 15 12 12 13 16 19 20 20 21 25 28 30 30 29 27 27
32 31 29 28 30 30 30 30 27 22 17 17 19 22 24 25 26 27 28 30 30 25 21 20 20 16 12 9 9 10 13 18 20 18 18 22 26 29 30 28 27 27
29 30 29 28 27 26 27 29 27 22 17 14 16 19 21 22 23 23 24 24 24 21 20 21 19 15 11 9 8 8 10 16 21 20 18 21 25 28 30 28 26 26
26 27 28 28 26 23 24 26 27 25 19 14 13 15 17 19 19 19 19 19 19 19 20 21 18 14 11 8 7 8 8 12 19 21 19 20 23 26 28 27 25 24
26 25 25 25 25 23 22 23 26 27 22 15 12 13 13 15 17 17 17 17 18 19 18 18 16 12 9 7 7 8 8 10 16 21 20 19 20 23 24 23 22 22
28 25 23 23 23 22 21 20 21 23 22 16 13 13 12 12 14 14 15 15 16 16 15 14 13 10 8 7 7 8 8 8 13 19 20 18 17 18 18 18 19 21
29 25 23 22 21 21 20 19 18 17 18 17 16 14 12 12 12 12 13 13 13 13 13 12 10 9 7 6 6 7 8 7 11 16 18 16 15 16 16 18 19 20
30 26 24 23 21 20 19 18 17 15 15 15 15 15 14 12 12 12 11 12 12 12 12 11 10 8 7 6 6 7 8 7 9 13 16 15 14 14 16 16 17 16
30 27 24 23 22 20 18 17 16 16 14 14 14 14 14 13 12 12 11 11 11 11 11 10 9 8 7 6 7 7 8 8 8 11 13 12 12 13 14 14 14 14
28 26 24 24 22 20 19 18 17 16 15 14 14 14 14 14 13 13 12 11 11 11 10 9 8 8 7 7 8 7 8 9 8 9 11 10 10 12 13 13 13 14
27 25 23 22 22 21 20 19 18 17 15 14 14 14 14 13 13 12 12 12 11 10 9 8 7 7 7 7 8 8 8 9 9 9 9 9 10 13 14 15 14 14
27 26 24 21 21 21 21 22 20 18 17 16 15 14 13 13 12 12 11 11 11 10 9 8 7 7 8 8 8 7 7 9 9 9 9 9 11 13 15 15 14 13
28 28 27 24 22 21 21 21 20 19 19 18 18 16 14 12 11 11 11 11 10 9 8 8 8 8 8 8 8 8 7 8 9 9 9 9 11 13 14 15 14 13
28 29 29 28 27 24 22 20 19 19 19 18 18 17 15 13 12 11 11 10 10 10 9 8 8 8 8 8 8 8 8 8 8 9 9 9 11 12 13 13 13 12
29 29 30 31 31 30 26 22 19 18 18 17 17 17 15 14 13 11 10 10 10 10 9 9 9 9 9 9 10 10 10 8 7 8 9 9 10 11 12 12 12 12
30 31 32 32 33 33 30 25 20 18 17 16 15 15 13 12 11 11 10 9 10 10 9 9 9 10 11 11 12 13 13 11 8 6 7 8 9 10 10 10 10 11
31 32 33 33 34 35 34 31 26 21 17 14 14 13 12 11 11 11 10 9 9 9 9 10 10 10 11 12 13 14 14 13 11 8 7 6 7 8 9 9 9 10
31 31 32 33 34 35 36 37 34 28 21 15 13 12 12 11 11 11 10 9 8 9 9 10 10 11 11 12 13 14 15 15 14 12 10 8 7 6 7 8 8 8
31 31 32 33 33 34 35 36 35 31 23 16 12 11 10 10 10 9 9 9 8 8 8 9 10 10 10 11 12 13 14 14 14 13 12 11 9 7 6 7 7 8
Wind_Speed
31 30 29 29 28 29 29 29 28 27 26 25 23 22 20 20 19 18 17 16 14 13 12 11 10 10 10 11 11 10 9 8 7 7 6 6 5 5 4 3 2 2
30 30 30 29 29 29 29 29 29 28 27 26 25 24 23 22 21 21 19 17 16 15 14 13 12 12 12 12 13 12 11 10 9 8 7 7 7 6 5 4 3 3
30 30 30 29 29 28 29 29 29 29 28 27 27 26 25 24 24 23 21 19 18 17 16 15 14 14 14 14 14 14 13 12 11 10 9 9 8 7 7 5 4 4
30 30 29 29 28 28 28 29 30 29 29 28 28 28 27 26 26 24 22 20 20 19 18 17 16 16 16 16 16 16 15 14 13 13 11 11 10 10 9 8 6 5
30 30 30 29 29 29 29 30 30 30 29 29 28 29 28 28 27 25 23 22 21 20 19 19 18 17 17 17 17 17 16 16 15 15 14 13 13 12 11 10 8 8
30 30 31 31 30 30 30 30 29 29 29 29 29 30 30 29 28 27 25 23 22 22 21 20 19 18 18 18 18 17 17 17 17 17 16 15 15 14 13 12 11 10
31 30 31 31 32 31 30 30 29 29 30 30 31 31 30 30 29 28 26 25 24 23 22 20 20 19 19 19 19 18 18 18 19 18 18 17 17 16 15 14 13 13
31 31 31 31 32 32 30 30 29 30 30 31 31 31 31 31 30 29 28 26 25 24 23 21 21 20 19 19 19 18 17 18 19 20 19 19 19 18 17 17 16 15
31 32 32 32 32 32 31 30 30 30 30 31 31 31 31 31 31 30 29 27 27 25 24 22 21 20 20 20 18 17 17 18 20 20 21 20 20 19 19 19 18 17
31 32 32 32 32 32 31 30 30 29 29 30 31 31 31 31 31 30 29 28 27 26 24 23 21 21 21 20 19 18 18 18 20 21 21 21 21 20 20 20 19 18
31 31 32 32 32 32 31 31 30 30 29 30 31 31 31 30 30 30 29 28 27 26 24 23 22 21 21 21 20 19 19 19 20 21 22 22 22 21 21 20 20 19
31 32 32 31 32 32 32 32 31 31 29 29 30 30 30 30 30 29 28 27 26 26 25 23 23 22 21 21 21 20 20 20 21 22 22 23 22 22 21 21 20 19
31 32 32 31 31 31 32 32 32 32 30 29 29 30 30 29 29 29 28 28 27 27 26 25 24 23 22 22 22 22 20 21 22 22 23 23 23 22 21 21 20 19
30 31 31 30 30 31 31 32 33 32 31 30 30 30 29 29 29 29 29 29 28 28 27 26 25 24 24 23 23 23 21 21 22 23 23 23 22 21 21 21 19 19
30 31 31 31 31 31 31 31 32 32 32 31 30 30 29 28 28 28 28 29 29 29 29 28 27 26 25 23 23 23 22 21 22 23 24 23 23 22 22 21 19 19
29 30 31 31 31 30 30 30 30 31 32 31 31 31 30 29 28 28 28 28 28 29 29 29 28 27 25 23 23 22 22 22 22 24 25 24 24 23 23 21 20 19
29 29 30 31 31 30 29 29 29 30 31 31 31 31 31 31 29 29 28 27 27 28 28 28 28 27 25 24 23 23 23 23 22 24 25 25 25 24 23 22 21 20
28 28 28 30 31 31 30 29 29 29 29 29 29 30 31 31 30 30 29 28 28 28 27 27 27 26 25 24 24 23 23 23 23 24 26 26 26 25 24 23 22 22
29 28 28 28 30 30 30 30 30 29 28 28 28 28 29 30 30 30 29 29 28 28 27 26 25 24 24 24 24 24 24 24 24 24 26 27 27 27 26 25 24 24
30 29 28 28 28 29 30 31 30 30 29 28 28 28 28 29 29 29 29 29 29 28 26 25 24 23 22 23 23 24 24 25 24 25 26 28 29 28 28 27 26 26
29 30 29 29 28 28 29 30 30 30 30 29 29 29 28 28 29 29 29 29 29 28 27 25 24 22 21 22 23 23 24 25 26 26 27 28 30 30 30 29 29 28
29 29 29 29 29 29 29 29 30 31 31 30 30 30 30 29 29 29 29 29 29 28 27 26 24 22 21 21 23 23 24 25 26 27 28 29 30 30 31 31 30 30
31 31 30 29 28 28 29 30 30 31 31 31 30 30 31 30 29 29 29 29 28 28 28 26 24 23 22 22 23 25 25 26 26 28 29 29 29 30 31 31 31 31
33 32 31 30 28 27 28 29 29 30 30 30 31 31 31 30 29 29 29 29 28 29 29 27 25 25 24 24 25 26 27 27 27 28 29 29 29 30 31 32 32 32
33 33 32 31 29 28 28 29 29 29 29 30 31 31 31 30 29 29 29 29 29 30 29 28 27 27 27 26 27 28 28 29 29 29 30 29 29 29 30 31 32 32
33 33 32 31 30 28 29 30 30 30 29 30 30 30 30 29 29 28 28 29 29 29 29 28 28 29 28 28 28 29 30 31 31 32 31 30 29 29 30 31 31 31
Wind_Direction
218 217 218 218 219 220 221 221 220 220 219 218 219 218 216 213 213 215 216 217 220 223 227 231 236 240 236 230 225 222 223 224 225 224 221 225 226 221 218 210 203 179
218 217 217 218 219 220 222 223 222 222 221 219 219 219 217 215 214 215 216 218 220 223 228 232 237 241 240 236 231 227 226 226 228 228 225 227 231 231 232 225 216 221
217 217 217 217 218 219 221 223 223 223 222 219 219 219 218 216 217 217 217 219 221 224 230 235 238 241 242 241 237 232 230 228 230 231 228 227 230 232 235 231 223 229
216 216 216 216 217 217 219 221 222 222 222 219 218 219 219 219 219 219 218 220 222 226 231 236 239 242 243 243 240 237 234 231 231 233 231 229 229 232 233 230 228 232
217 216 215 215 216 216 216 219 220 221 221 219 219 220 221 221 222 221 220 221 223 227 232 237 240 243 246 245 243 240 237 234 233 232 232 230 229 231 233 230 229 234
217 217 216 216 217 217 217 218 219 219 220 219 218 220 222 223 224 224 223 223 225 228 232 236 240 244 246 246 245 242 239 237 236 234 232 230 229 230 231 230 230 234
219 218 217 217 217 218 218 218 219 218 218 218 218 220 222 224 226 226 226 225 227 231 233 236 240 243 245 247 247 245 241 238 238 237 234 231 230 229 230 230 229 232
221 219 219 218 218 219 219 218 218 218 218 218 218 220 222 224 226 228 228 228 230 234 236 237 239 241 244 246 247 247 243 239 237 237 236 234 231 230 230 230 229 230
222 221 220 219 219 220 219 218 219 219 219 219 219 220 222 225 227 229 230 230 232 235 236 237 238 240 244 246 247 247 244 239 236 234 235 234 232 231 231 230 229 230
223 222 220 220 220 221 220 218 219 220 220 219 219 220 222 224 227 229 231 232 233 235 236 236 238 241 245 247 247 245 243 239 235 232 232 233 233 233 232 232 231 231
224 224 222 221 221 222 221 219 220 221 221 220 219 221 222 224 226 228 230 232 233 236 237 239 242 244 245 247 246 244 241 239 236 233 231 231 232 233 234 234 233 232
224 224 224 222 221 222 221 221 221 222 222 221 221 222 223 224 226 228 230 233 235 238 240 242 246 247 246 245 245 243 240 238 237 234 232 231 232 233 234 235 234 233
225 225 225 223 221 222 222 221 221 222 223 222 222 223 225 225 226 229 231 234 236 239 243 245 246 247 245 243 243 243 241 238 237 235 234 233 232 233 234 234 232 231
226 225 225 223 222 222 222 222 222 223 224 223 223 225 226 227 228 229 232 235 237 239 242 245 245 245 244 241 241 243 242 240 237 235 234 234 233 232 231 230 229 227
227 226 224 222 222 222 222 223 222 223 224 224 224 225 227 228 228 229 231 234 236 238 240 242 243 243 242 241 240 242 243 242 238 235 234 234 233 230 229 227 224 222
226 226 223 222 222 222 222 223 222 223 224 225 225 225 227 228 229 230 231 232 234 236 237 239 241 241 242 241 240 240 241 242 239 235 234 234 231 228 226 224 219 214
224 225 223 221 221 222 222 222 223 223 224 226 226 226 227 229 230 231 232 233 235 236 237 238 240 241 241 240 239 237 238 240 239 234 233 232 229 224 222 219 214 210
221 222 221 220 220 220 221 222 223 224 224 225 226 226 227 229 231 232 233 235 236 236 237 238 239 240 239 238 238 236 235 238 238 234 232 230 226 222 218 216 214 212
219 219 219 219 218 219 220 221 223 224 224 225 226 226 227 228 230 231 233 234 236 236 237 238 239 239 237 235 235 234 233 236 236 233 231 229 226 221 217 217 217 217
219 219 218 217 216 217 218 220 222 224 224 225 226 226 226 227 228 230 231 232 234 235 235 236 237 237 234 232 232 232 232 233 235 234 231 229 227 223 220 220 220 221
218 218 217 216 215 215 216 217 220 222 223 224 225 226 226 226 227 229 230 231 232 233 233 233 234 234 230 228 228 230 232 232 233 233 232 230 229 227 224 224 224 225
215 215 216 216 216 216 216 216 218 220 221 222 224 225 226 226 226 227 228 229 230 231 231 230 230 230 227 224 225 228 232 233 234 234 234 233 232 231 230 229 228 228
214 215 214 214 215 215 216 217 218 219 220 221 222 224 225 224 224 226 228 229 229 230 231 229 228 228 226 223 223 227 232 234 235 236 237 236 235 234 234 234 233 232
215 217 216 215 215 217 218 219 219 220 220 221 222 224 225 225 224 226 228 229 229 230 230 229 228 227 226 224 224 227 231 235 237 238 238 237 236 236 236 236 236 235
218 219 219 219 218 219 220 221 222 222 222 222 223 224 226 225 225 226 227 228 229 229 230 229 228 227 226 224 225 227 231 234 237 239 239 239 238 237 237 237 237 236
221 222 222 221 219 219 220 221 222 223 222 222 223 224 226 226 225 225 226 227 228 229 229 228 228 228 226 224 226 229 231 234 237 239 239 240 239 239 239 238 237 237